owner,sensor,date,latitude,longitude,vertical_datum,mass_concentration_of_oxygen_in_sea_water,qcFlag 
SCCF RECON,ioos:station:SCCF:56:1,2014-03-01T00:00:00Z,26.4645,-82.1044,1.21,7.39,1111122 
SCCF RECON,ioos:station:SCCF:56:1,2014-03-01T01:00:00Z,26.4645,-82.1044,1.3,7.92,1111122 
SCCF RECON,ioos:station:SCCF:56:1,2014-03-01T02:00:00Z,26.4645,-82.1044,1.482,7.99,1111122 
SCCF RECON,ioos:station:SCCF:56:1,2014-03-01T03:00:00Z,26.4645,-82.1044,1.66,7.86,1111122 
SCCF RECON,ioos:station:SCCF:56:1,2014-03-01T04:00:00Z,26.4645,-82.1044,1.78,7.42,1111122 
SCCF RECON,ioos:station:SCCF:56:1,2014-03-01T05:00:00Z,26.4645,-82.1044,1.88,7.13,1111122 
SCCF RECON,ioos:station:SCCF:56:1,2014-03-01T06:00:00Z,26.4645,-82.1044,1.91,7.49,1111122 
SCCF RECON,ioos:station:SCCF:56:1,2014-03-01T07:00:00Z,26.4645,-82.1044,1.792,7.07,1111122 
SCCF RECON,ioos:station:SCCF:56:1,2014-03-01T08:00:00Z,26.4645,-82.1044,1.61,6.62,1111122 
SCCF RECON,ioos:station:SCCF:56:1,2014-03-01T09:00:00Z,26.4645,-82.1044,1.45,6.05,1111122 
SCCF RECON,ioos:station:SCCF:56:1,2014-03-01T10:00:00Z,26.4645,-82.1044,1.323,5.59,1111122 
SCCF RECON,ioos:station:SCCF:56:1,2014-03-01T11:00:00Z,26.4645,-82.1044,1.2,5.36,1111122 
SCCF RECON,ioos:station:SCCF:56:1,2014-03-01T12:00:00Z,26.4645,-82.1044,1.107,4.96,1111122 
SCCF RECON,ioos:station:SCCF:56:1,2014-03-01T13:00:00Z,26.4645,-82.1044,1.06,4.78,1111122 
SCCF RECON,ioos:station:SCCF:56:1,2014-03-01T14:00:00Z,26.4645,-82.1044,1.205,5.56,1111122 
SCCF RECON,ioos:station:SCCF:56:1,2014-03-01T15:00:00Z,26.4645,-82.1044,1.41,7.4,1111122 
SCCF RECON,ioos:station:SCCF:56:1,2014-03-01T16:00:00Z,26.4645,-82.1044,1.57,8.34,1111122 
SCCF RECON,ioos:station:SCCF:56:1,2014-03-01T17:00:00Z,26.4645,-82.1044,1.68,8.9,1111122 
SCCF RECON,ioos:station:SCCF:56:1,2014-03-01T18:00:00Z,26.4645,-82.1044,1.74,8.42,1111122 
SCCF RECON,ioos:station:SCCF:56:1,2014-03-01T19:00:00Z,26.4645,-82.1044,1.729,8.36,1111122 
SCCF RECON,ioos:station:SCCF:56:1,2014-03-01T20:00:00Z,26.4645,-82.1044,1.61,8.42,1111122 
SCCF RECON,ioos:station:SCCF:56:1,2014-03-01T21:00:00Z,26.4645,-82.1044,1.46,8.43,1111122 
SCCF RECON,ioos:station:SCCF:56:1,2014-03-01T22:00:00Z,26.4645,-82.1044,1.348,8.22,1111122 
SCCF RECON,ioos:station:SCCF:56:1,2014-03-01T23:00:00Z,26.4645,-82.1044,1.26,8.04,1111122 
SCCF RECON,ioos:station:SCCF:56:1,2014-03-02T00:00:00Z,26.4645,-82.1044,1.18,7.76,1111122 
SCCF RECON,ioos:station:SCCF:56:1,2014-03-02T01:00:00Z,26.4645,-82.1044,1.129,7.72,1111122 
SCCF RECON,ioos:station:SCCF:56:1,2014-03-02T02:00:00Z,26.4645,-82.1044,1.198,7.72,1111122 
SCCF RECON,ioos:station:SCCF:56:1,2014-03-02T03:00:00Z,26.4645,-82.1044,1.4,7.41,1111122 
SCCF RECON,ioos:station:SCCF:56:1,2014-03-02T04:00:00Z,26.4645,-82.1044,1.585,7.28,1111122 
SCCF RECON,ioos:station:SCCF:56:1,2014-03-02T05:00:00Z,26.4645,-82.1044,1.713,7.22,1111122 
SCCF RECON,ioos:station:SCCF:56:1,2014-03-02T06:00:00Z,26.4645,-82.1044,1.8,7.44,1111122 
SCCF RECON,ioos:station:SCCF:56:1,2014-03-02T07:00:00Z,26.4645,-82.1044,1.8,7.49,1111122 
SCCF RECON,ioos:station:SCCF:56:1,2014-03-02T08:00:00Z,26.4645,-82.1044,1.686,7.34,1111122 
SCCF RECON,ioos:station:SCCF:56:1,2014-03-02T09:00:00Z,26.4645,-82.1044,1.53,6.79,1111122 
SCCF RECON,ioos:station:SCCF:56:1,2014-03-02T10:00:00Z,26.4645,-82.1044,1.38,5.98,1111122 
SCCF RECON,ioos:station:SCCF:56:1,2014-03-02T11:00:00Z,26.4645,-82.1044,1.26,5.41,1111122 
SCCF RECON,ioos:station:SCCF:56:1,2014-03-02T12:00:00Z,26.4645,-82.1044,1.16,5.14,1111122 
SCCF RECON,ioos:station:SCCF:56:1,2014-03-02T13:00:00Z,26.4645,-82.1044,1.08,4.72,1111122 
SCCF RECON,ioos:station:SCCF:56:1,2014-03-02T14:00:00Z,26.4645,-82.1044,1.11,4.73,1111122 
SCCF RECON,ioos:station:SCCF:56:1,2014-03-02T15:00:00Z,26.4645,-82.1044,1.31,7.65,1111122 
SCCF RECON,ioos:station:SCCF:56:1,2014-03-02T16:00:00Z,26.4645,-82.1044,1.5,9.08,1111122 
SCCF RECON,ioos:station:SCCF:56:1,2014-03-02T17:00:00Z,26.4645,-82.1044,1.62,9.04,1111122 
SCCF RECON,ioos:station:SCCF:56:1,2014-03-02T18:00:00Z,26.4645,-82.1044,1.72,8.65,1111122 
SCCF RECON,ioos:station:SCCF:56:1,2014-03-02T19:00:00Z,26.4645,-82.1044,1.77,8.53,1111122 
SCCF RECON,ioos:station:SCCF:56:1,2014-03-02T20:00:00Z,26.4645,-82.1044,1.74,8.35,1111122 
SCCF RECON,ioos:station:SCCF:56:1,2014-03-02T21:00:00Z,26.4645,-82.1044,1.6,8.45,1111122 
SCCF RECON,ioos:station:SCCF:56:1,2014-03-02T22:00:00Z,26.4645,-82.1044,1.46,8.26,1111122 
SCCF RECON,ioos:station:SCCF:56:1,2014-03-02T23:00:00Z,26.4645,-82.1044,1.34,8.01,1111122 
SCCF RECON,ioos:station:SCCF:56:1,2014-03-03T00:00:00Z,26.4645,-82.1044,1.23,7.62,1111122 
SCCF RECON,ioos:station:SCCF:56:1,2014-03-03T01:00:00Z,26.4645,-82.1044,1.14,7.59,1111122 
SCCF RECON,ioos:station:SCCF:56:1,2014-03-03T02:00:00Z,26.4645,-82.1044,1.12,7.52,1111122 
SCCF RECON,ioos:station:SCCF:56:1,2014-03-03T03:00:00Z,26.4645,-82.1044,1.27,7.12,1111122 
SCCF RECON,ioos:station:SCCF:56:1,2014-03-03T04:00:00Z,26.4645,-82.1044,1.47,5.97,1111122 
SCCF RECON,ioos:station:SCCF:56:1,2014-03-03T05:00:00Z,26.4645,-82.1044,1.611,6.91,1111122 
SCCF RECON,ioos:station:SCCF:56:1,2014-03-03T06:00:00Z,26.4645,-82.1044,1.738,7.12,1111122 
SCCF RECON,ioos:station:SCCF:56:1,2014-03-03T07:00:00Z,26.4645,-82.1044,1.81,6.88,1111122 
SCCF RECON,ioos:station:SCCF:56:1,2014-03-03T08:00:00Z,26.4645,-82.1044,1.8,7.0,1111122 
SCCF RECON,ioos:station:SCCF:56:1,2014-03-03T09:00:00Z,26.4645,-82.1044,1.683,6.77,1111122 
SCCF RECON,ioos:station:SCCF:56:1,2014-03-03T10:00:00Z,26.4645,-82.1044,1.51,6.31,1111122 
SCCF RECON,ioos:station:SCCF:56:1,2014-03-03T11:00:00Z,26.4645,-82.1044,1.39,5.6,1111122 
SCCF RECON,ioos:station:SCCF:56:1,2014-03-03T12:00:00Z,26.4645,-82.1044,1.291,5.16,1111122 
SCCF RECON,ioos:station:SCCF:56:1,2014-03-03T13:00:00Z,26.4645,-82.1044,1.22,4.9,1111122 
SCCF RECON,ioos:station:SCCF:56:1,2014-03-03T14:00:00Z,26.4645,-82.1044,1.19,4.62,1111122 
SCCF RECON,ioos:station:SCCF:56:1,2014-03-03T15:00:00Z,26.4645,-82.1044,1.28,5.52,1111122 
SCCF RECON,ioos:station:SCCF:56:1,2014-03-03T16:00:00Z,26.4645,-82.1044,1.47,8.59,1111122 
SCCF RECON,ioos:station:SCCF:56:1,2014-03-03T17:00:00Z,26.4645,-82.1044,1.62,8.41,1111122 
SCCF RECON,ioos:station:SCCF:56:1,2014-03-03T18:00:00Z,26.4645,-82.1044,1.72,8.21,1111122 
SCCF RECON,ioos:station:SCCF:56:1,2014-03-03T19:00:00Z,26.4645,-82.1044,1.78,8.48,1111122 
SCCF RECON,ioos:station:SCCF:56:1,2014-03-03T20:00:00Z,26.4645,-82.1044,1.78,8.12,1111122 
SCCF RECON,ioos:station:SCCF:56:1,2014-03-03T21:00:00Z,26.4645,-82.1044,1.69,8.09,1111122 
SCCF RECON,ioos:station:SCCF:56:1,2014-03-03T22:00:00Z,26.4645,-82.1044,1.55,7.97,1111122 
SCCF RECON,ioos:station:SCCF:56:1,2014-03-03T23:00:00Z,26.4645,-82.1044,1.409,7.66,1111122 
SCCF RECON,ioos:station:SCCF:56:1,2014-03-04T00:00:00Z,26.4645,-82.1044,1.281,7.14,1111122 
SCCF RECON,ioos:station:SCCF:56:1,2014-03-04T01:00:00Z,26.4645,-82.1044,1.171,6.77,1111122 
SCCF RECON,ioos:station:SCCF:56:1,2014-03-04T02:00:00Z,26.4645,-82.1044,1.092,6.63,1111122 
SCCF RECON,ioos:station:SCCF:56:1,2014-03-04T03:00:00Z,26.4645,-82.1044,1.1,6.4,1111122 
SCCF RECON,ioos:station:SCCF:56:1,2014-03-04T04:00:00Z,26.4645,-82.1044,1.248,6.36,1111122 
SCCF RECON,ioos:station:SCCF:56:1,2014-03-04T05:00:00Z,26.4645,-82.1044,1.426,4.72,1111122 
SCCF RECON,ioos:station:SCCF:56:1,2014-03-04T06:00:00Z,26.4645,-82.1044,1.56,6.4,1111122 
SCCF RECON,ioos:station:SCCF:56:1,2014-03-04T07:00:00Z,26.4645,-82.1044,1.67,6.46,1111122 
SCCF RECON,ioos:station:SCCF:56:1,2014-03-04T08:00:00Z,26.4645,-82.1044,1.727,6.52,1111122 
SCCF RECON,ioos:station:SCCF:56:1,2014-03-04T09:00:00Z,26.4645,-82.1044,1.68,6.75,1111122 
SCCF RECON,ioos:station:SCCF:56:1,2014-03-04T10:00:00Z,26.4645,-82.1044,1.559,6.29,1111122 
SCCF RECON,ioos:station:SCCF:56:1,2014-03-04T11:00:00Z,26.4645,-82.1044,1.44,5.63,1111122 
SCCF RECON,ioos:station:SCCF:56:1,2014-03-04T12:00:00Z,26.4645,-82.1044,1.35,4.88,1111122 
SCCF RECON,ioos:station:SCCF:56:1,2014-03-04T13:00:00Z,26.4645,-82.1044,1.27,4.39,1111122 
SCCF RECON,ioos:station:SCCF:56:1,2014-03-04T14:00:00Z,26.4645,-82.1044,1.22,4.18,1111122 
SCCF RECON,ioos:station:SCCF:56:1,2014-03-04T15:00:00Z,26.4645,-82.1044,1.23,4.22,1111122 
SCCF RECON,ioos:station:SCCF:56:1,2014-03-04T16:00:00Z,26.4645,-82.1044,1.39,7.45,1111122 
SCCF RECON,ioos:station:SCCF:56:1,2014-03-04T17:00:00Z,26.4645,-82.1044,1.55,7.92,1111122 
SCCF RECON,ioos:station:SCCF:56:1,2014-03-04T18:00:00Z,26.4645,-82.1044,1.67,7.93,1111122 
SCCF RECON,ioos:station:SCCF:56:1,2014-03-04T19:00:00Z,26.4645,-82.1044,1.75,8.04,1111122 
SCCF RECON,ioos:station:SCCF:56:1,2014-03-04T20:00:00Z,26.4645,-82.1044,1.8,7.74,1111122 
SCCF RECON,ioos:station:SCCF:56:1,2014-03-04T21:00:00Z,26.4645,-82.1044,1.76,7.95,1111122 
SCCF RECON,ioos:station:SCCF:56:1,2014-03-04T22:00:00Z,26.4645,-82.1044,1.63,7.9,1111122 
SCCF RECON,ioos:station:SCCF:56:1,2014-03-04T23:00:00Z,26.4645,-82.1044,1.493,7.42,1111122 
SCCF RECON,ioos:station:SCCF:56:1,2014-03-05T00:00:00Z,26.4645,-82.1044,1.375,6.79,1111122 
SCCF RECON,ioos:station:SCCF:56:1,2014-03-05T01:00:00Z,26.4645,-82.1044,1.27,6.57,1111122 
SCCF RECON,ioos:station:SCCF:56:1,2014-03-05T02:00:00Z,26.4645,-82.1044,1.17,6.3,1111122 
SCCF RECON,ioos:station:SCCF:56:1,2014-03-05T03:00:00Z,26.4645,-82.1044,1.1,6.02,1111122 
SCCF RECON,ioos:station:SCCF:56:1,2014-03-05T04:00:00Z,26.4645,-82.1044,1.119,5.52,1111122 
SCCF RECON,ioos:station:SCCF:56:1,2014-03-05T05:00:00Z,26.4645,-82.1044,1.283,4.85,1111122 
SCCF RECON,ioos:station:SCCF:56:1,2014-03-05T06:00:00Z,26.4645,-82.1044,1.428,5.09,1111122 
SCCF RECON,ioos:station:SCCF:56:1,2014-03-05T07:00:00Z,26.4645,-82.1044,1.52,5.54,1111122 
SCCF RECON,ioos:station:SCCF:56:1,2014-03-05T08:00:00Z,26.4645,-82.1044,1.609,6.03,1111122 
SCCF RECON,ioos:station:SCCF:56:1,2014-03-05T09:00:00Z,26.4645,-82.1044,1.67,5.95,1111122 
SCCF RECON,ioos:station:SCCF:56:1,2014-03-05T10:00:00Z,26.4645,-82.1044,1.66,6.31,1111122 
SCCF RECON,ioos:station:SCCF:56:1,2014-03-05T11:00:00Z,26.4645,-82.1044,1.56,6.07,1111122 
SCCF RECON,ioos:station:SCCF:56:1,2014-03-05T12:00:00Z,26.4645,-82.1044,1.447,4.87,1111122 
SCCF RECON,ioos:station:SCCF:56:1,2014-03-05T13:00:00Z,26.4645,-82.1044,1.39,4.41,1111122 
SCCF RECON,ioos:station:SCCF:56:1,2014-03-05T14:00:00Z,26.4645,-82.1044,1.34,4.21,1111122 
SCCF RECON,ioos:station:SCCF:56:1,2014-03-05T15:00:00Z,26.4645,-82.1044,1.34,4.24,1111122 
SCCF RECON,ioos:station:SCCF:56:1,2014-03-05T16:00:00Z,26.4645,-82.1044,1.41,5.75,1111122 
SCCF RECON,ioos:station:SCCF:56:1,2014-03-05T17:00:00Z,26.4645,-82.1044,1.51,8.39,1111122 
SCCF RECON,ioos:station:SCCF:56:1,2014-03-05T18:00:00Z,26.4645,-82.1044,1.63,8.33,1111122 
SCCF RECON,ioos:station:SCCF:56:1,2014-03-05T19:00:00Z,26.4645,-82.1044,1.73,8.02,1111122 
SCCF RECON,ioos:station:SCCF:56:1,2014-03-05T20:00:00Z,26.4645,-82.1044,1.783,7.74,1111122 
SCCF RECON,ioos:station:SCCF:56:1,2014-03-05T21:00:00Z,26.4645,-82.1044,1.79,8.19,1111122 
SCCF RECON,ioos:station:SCCF:56:1,2014-03-05T22:00:00Z,26.4645,-82.1044,1.742,8.05,1111122 
SCCF RECON,ioos:station:SCCF:56:1,2014-03-05T23:00:00Z,26.4645,-82.1044,1.621,7.84,1111122 
SCCF RECON,ioos:station:SCCF:56:1,2014-03-06T00:00:00Z,26.4645,-82.1044,1.49,6.83,1111122 
SCCF RECON,ioos:station:SCCF:56:1,2014-03-06T01:00:00Z,26.4645,-82.1044,1.38,6.26,1111122 
SCCF RECON,ioos:station:SCCF:56:1,2014-03-06T02:00:00Z,26.4645,-82.1044,1.27,5.74,1111122 
SCCF RECON,ioos:station:SCCF:56:1,2014-03-06T03:00:00Z,26.4645,-82.1044,1.19,5.4,1111122 
SCCF RECON,ioos:station:SCCF:56:1,2014-03-06T04:00:00Z,26.4645,-82.1044,1.12,5.19,1111122 
SCCF RECON,ioos:station:SCCF:56:1,2014-03-06T05:00:00Z,26.4645,-82.1044,1.139,5.03,1111122 
SCCF RECON,ioos:station:SCCF:56:1,2014-03-06T06:00:00Z,26.4645,-82.1044,1.27,4.45,1111122 
SCCF RECON,ioos:station:SCCF:56:1,2014-03-06T07:00:00Z,26.4645,-82.1044,1.389,3.9,1111122 
SCCF RECON,ioos:station:SCCF:56:1,2014-03-06T08:00:00Z,26.4645,-82.1044,1.46,4.48,1111122 
SCCF RECON,ioos:station:SCCF:56:1,2014-03-06T09:00:00Z,26.4645,-82.1044,1.51,4.93,1111122 
SCCF RECON,ioos:station:SCCF:56:1,2014-03-06T10:00:00Z,26.4645,-82.1044,1.53,5.41,1111122 
SCCF RECON,ioos:station:SCCF:56:1,2014-03-06T11:00:00Z,26.4645,-82.1044,1.52,5.21,1111122 
SCCF RECON,ioos:station:SCCF:56:1,2014-03-06T12:00:00Z,26.4645,-82.1044,1.53,5.1,1111122 
SCCF RECON,ioos:station:SCCF:56:1,2014-03-06T13:00:00Z,26.4645,-82.1044,1.51,5.25,1111122 
SCCF RECON,ioos:station:SCCF:56:1,2014-03-06T14:00:00Z,26.4645,-82.1044,1.439,4.83,1111122 
SCCF RECON,ioos:station:SCCF:56:1,2014-03-06T15:00:00Z,26.4645,-82.1044,1.42,4.64,1111122 
SCCF RECON,ioos:station:SCCF:56:1,2014-03-06T16:00:00Z,26.4645,-82.1044,1.45,5.01,1111122 
SCCF RECON,ioos:station:SCCF:56:1,2014-03-06T17:00:00Z,26.4645,-82.1044,1.55,5.42,1111122 
SCCF RECON,ioos:station:SCCF:56:1,2014-03-06T18:00:00Z,26.4645,-82.1044,1.64,5.63,1111122 
SCCF RECON,ioos:station:SCCF:56:1,2014-03-06T19:00:00Z,26.4645,-82.1044,1.825,5.92,1111122 
SCCF RECON,ioos:station:SCCF:56:1,2014-03-06T20:00:00Z,26.4645,-82.1044,1.96,6.12,1111122 
SCCF RECON,ioos:station:SCCF:56:1,2014-03-06T21:00:00Z,26.4645,-82.1044,1.798,6.01,1111122 
SCCF RECON,ioos:station:SCCF:56:1,2014-03-06T22:00:00Z,26.4645,-82.1044,1.73,5.7,1111122 
SCCF RECON,ioos:station:SCCF:56:1,2014-03-06T23:00:00Z,26.4645,-82.1044,1.73,5.13,1111122 
SCCF RECON,ioos:station:SCCF:56:1,2014-03-07T00:00:00Z,26.4645,-82.1044,1.7,5.0,1111122 
SCCF RECON,ioos:station:SCCF:56:1,2014-03-07T01:00:00Z,26.4645,-82.1044,1.64,5.17,1111122 
SCCF RECON,ioos:station:SCCF:56:1,2014-03-07T02:00:00Z,26.4645,-82.1044,1.52,4.4,1111122 
SCCF RECON,ioos:station:SCCF:56:1,2014-03-07T03:00:00Z,26.4645,-82.1044,1.4,3.89,1111122 
SCCF RECON,ioos:station:SCCF:56:1,2014-03-07T04:00:00Z,26.4645,-82.1044,1.292,3.48,1111122 
SCCF RECON,ioos:station:SCCF:56:1,2014-03-07T05:00:00Z,26.4645,-82.1044,1.2,3.15,1111122 
SCCF RECON,ioos:station:SCCF:56:1,2014-03-07T06:00:00Z,26.4645,-82.1044,1.15,2.99,1111122 
SCCF RECON,ioos:station:SCCF:56:1,2014-03-07T07:00:00Z,26.4645,-82.1044,1.259,4.22,1111122 
SCCF RECON,ioos:station:SCCF:56:1,2014-03-07T08:00:00Z,26.4645,-82.1044,1.38,4.96,1111122 
SCCF RECON,ioos:station:SCCF:56:1,2014-03-07T09:00:00Z,26.4645,-82.1044,1.48,5.0,1111122 
SCCF RECON,ioos:station:SCCF:56:1,2014-03-07T10:00:00Z,26.4645,-82.1044,1.54,5.21,1111122 
SCCF RECON,ioos:station:SCCF:56:1,2014-03-07T11:00:00Z,26.4645,-82.1044,1.6,5.19,1111122 
SCCF RECON,ioos:station:SCCF:56:1,2014-03-07T12:00:00Z,26.4645,-82.1044,1.609,4.81,1111122 
SCCF RECON,ioos:station:SCCF:56:1,2014-03-07T13:00:00Z,26.4645,-82.1044,1.54,4.68,1111122 
SCCF RECON,ioos:station:SCCF:56:1,2014-03-07T14:00:00Z,26.4645,-82.1044,1.46,4.61,1111122 
SCCF RECON,ioos:station:SCCF:56:1,2014-03-07T15:00:00Z,26.4645,-82.1044,1.41,4.28,1111122 
SCCF RECON,ioos:station:SCCF:56:1,2014-03-07T16:00:00Z,26.4645,-82.1044,1.42,4.24,1111122 
SCCF RECON,ioos:station:SCCF:56:1,2014-03-07T17:00:00Z,26.4645,-82.1044,1.47,6.16,1111122 
SCCF RECON,ioos:station:SCCF:56:1,2014-03-07T18:00:00Z,26.4645,-82.1044,1.47,5.8,1111122 
SCCF RECON,ioos:station:SCCF:56:1,2014-03-07T19:00:00Z,26.4645,-82.1044,1.47,5.08,1111122 
SCCF RECON,ioos:station:SCCF:56:1,2014-03-07T20:00:00Z,26.4645,-82.1044,1.478,5.19,1111122 
SCCF RECON,ioos:station:SCCF:56:1,2014-03-07T21:00:00Z,26.4645,-82.1044,1.53,7.64,1111122 
SCCF RECON,ioos:station:SCCF:56:1,2014-03-07T22:00:00Z,26.4645,-82.1044,1.59,7.04,1111122 
SCCF RECON,ioos:station:SCCF:56:1,2014-03-07T23:00:00Z,26.4645,-82.1044,1.61,5.32,1111122 
SCCF RECON,ioos:station:SCCF:56:1,2014-03-08T00:00:00Z,26.4645,-82.1044,1.58,2.96,1111122 
SCCF RECON,ioos:station:SCCF:56:1,2014-03-08T01:00:00Z,26.4645,-82.1044,1.515,1.66,1111122 
SCCF RECON,ioos:station:SCCF:56:1,2014-03-08T02:00:00Z,26.4645,-82.1044,1.44,2.5,1111122 
SCCF RECON,ioos:station:SCCF:56:1,2014-03-08T03:00:00Z,26.4645,-82.1044,1.378,4.0,1111122 
SCCF RECON,ioos:station:SCCF:56:1,2014-03-08T04:00:00Z,26.4645,-82.1044,1.29,1.73,1111122 
SCCF RECON,ioos:station:SCCF:56:1,2014-03-08T05:00:00Z,26.4645,-82.1044,1.2,2.12,1111122 
SCCF RECON,ioos:station:SCCF:56:1,2014-03-08T06:00:00Z,26.4645,-82.1044,1.12,1.43,1111122 
SCCF RECON,ioos:station:SCCF:56:1,2014-03-08T07:00:00Z,26.4645,-82.1044,1.06,1.12,1111122 
SCCF RECON,ioos:station:SCCF:56:1,2014-03-08T08:00:00Z,26.4645,-82.1044,1.07,0.76,1111122 
SCCF RECON,ioos:station:SCCF:56:1,2014-03-08T09:00:00Z,26.4645,-82.1044,1.156,2.36,1111122 
SCCF RECON,ioos:station:SCCF:56:1,2014-03-08T10:00:00Z,26.4645,-82.1044,1.25,1.68,1111122 
SCCF RECON,ioos:station:SCCF:56:1,2014-03-08T11:00:00Z,26.4645,-82.1044,1.32,2.17,1111122 
SCCF RECON,ioos:station:SCCF:56:1,2014-03-08T12:00:00Z,26.4645,-82.1044,1.39,2.44,1111122 
SCCF RECON,ioos:station:SCCF:56:1,2014-03-08T13:00:00Z,26.4645,-82.1044,1.42,2.55,1111122 
SCCF RECON,ioos:station:SCCF:56:1,2014-03-08T14:00:00Z,26.4645,-82.1044,1.43,2.79,1111122 
SCCF RECON,ioos:station:SCCF:56:1,2014-03-08T15:00:00Z,26.4645,-82.1044,1.43,1.63,1111122 
SCCF RECON,ioos:station:SCCF:56:1,2014-03-08T16:00:00Z,26.4645,-82.1044,1.41,2.65,1111122 
SCCF RECON,ioos:station:SCCF:56:1,2014-03-08T17:00:00Z,26.4645,-82.1044,1.41,3.04,1111122 
SCCF RECON,ioos:station:SCCF:56:1,2014-03-08T18:00:00Z,26.4645,-82.1044,1.46,3.9,1111122 
SCCF RECON,ioos:station:SCCF:56:1,2014-03-08T19:00:00Z,26.4645,-82.1044,1.51,3.03,1111122 
SCCF RECON,ioos:station:SCCF:56:1,2014-03-08T20:00:00Z,26.4645,-82.1044,1.55,2.8,1111122 
SCCF RECON,ioos:station:SCCF:56:1,2014-03-08T21:00:00Z,26.4645,-82.1044,1.59,2.76,1111122 
SCCF RECON,ioos:station:SCCF:56:1,2014-03-08T22:00:00Z,26.4645,-82.1044,1.63,4.08,1111122 
SCCF RECON,ioos:station:SCCF:56:1,2014-03-08T23:00:00Z,26.4645,-82.1044,1.67,4.26,1111122 
SCCF RECON,ioos:station:SCCF:56:1,2014-03-09T00:00:00Z,26.4645,-82.1044,1.67,6.14,1111122 
SCCF RECON,ioos:station:SCCF:56:1,2014-03-09T01:00:00Z,26.4645,-82.1044,1.64,5.64,1111122 
SCCF RECON,ioos:station:SCCF:56:1,2014-03-09T02:00:00Z,26.4645,-82.1044,1.57,5.83,1111122 
SCCF RECON,ioos:station:SCCF:56:1,2014-03-09T03:00:00Z,26.4645,-82.1044,1.49,5.76,1111122 
SCCF RECON,ioos:station:SCCF:56:1,2014-03-09T04:00:00Z,26.4645,-82.1044,1.408,5.12,1111122 
SCCF RECON,ioos:station:SCCF:56:1,2014-03-09T05:00:00Z,26.4645,-82.1044,1.334,4.72,1111122 
SCCF RECON,ioos:station:SCCF:56:1,2014-03-09T06:00:00Z,26.4645,-82.1044,1.26,5.21,1111122 
SCCF RECON,ioos:station:SCCF:56:1,2014-03-09T07:00:00Z,26.4645,-82.1044,1.175,5.05,1111122 
SCCF RECON,ioos:station:SCCF:56:1,2014-03-09T08:00:00Z,26.4645,-82.1044,1.122,4.89,1111122 
SCCF RECON,ioos:station:SCCF:56:1,2014-03-09T09:00:00Z,26.4645,-82.1044,1.131,5.02,1111122 
SCCF RECON,ioos:station:SCCF:56:1,2014-03-09T10:00:00Z,26.4645,-82.1044,1.201,6.19,1111122 
SCCF RECON,ioos:station:SCCF:56:1,2014-03-09T11:00:00Z,26.4645,-82.1044,1.28,6.07,1111122 
SCCF RECON,ioos:station:SCCF:56:1,2014-03-09T12:00:00Z,26.4645,-82.1044,1.37,6.21,1111122 
SCCF RECON,ioos:station:SCCF:56:1,2014-03-09T13:00:00Z,26.4645,-82.1044,1.45,6.23,1111122 
SCCF RECON,ioos:station:SCCF:56:1,2014-03-09T14:00:00Z,26.4645,-82.1044,1.5,6.63,1111122 
SCCF RECON,ioos:station:SCCF:56:1,2014-03-09T15:00:00Z,26.4645,-82.1044,1.51,6.47,1111122 
SCCF RECON,ioos:station:SCCF:56:1,2014-03-09T16:00:00Z,26.4645,-82.1044,1.5,4.45,1111122 
SCCF RECON,ioos:station:SCCF:56:1,2014-03-09T17:00:00Z,26.4645,-82.1044,1.5,4.82,1111122 
SCCF RECON,ioos:station:SCCF:56:1,2014-03-09T18:00:00Z,26.4645,-82.1044,1.49,5.96,1111122 
SCCF RECON,ioos:station:SCCF:56:1,2014-03-09T19:00:00Z,26.4645,-82.1044,1.511,7.73,1111122 
SCCF RECON,ioos:station:SCCF:56:1,2014-03-09T20:00:00Z,26.4645,-82.1044,1.54,9.25,1111122 
SCCF RECON,ioos:station:SCCF:56:1,2014-03-09T21:00:00Z,26.4645,-82.1044,1.57,9.55,1111122 
SCCF RECON,ioos:station:SCCF:56:1,2014-03-09T22:00:00Z,26.4645,-82.1044,1.572,9.65,1111122 
SCCF RECON,ioos:station:SCCF:56:1,2014-03-09T23:00:00Z,26.4645,-82.1044,1.61,9.72,1111122 
SCCF RECON,ioos:station:SCCF:56:1,2014-03-10T00:00:00Z,26.4645,-82.1044,1.62,9.47,1111122 
SCCF RECON,ioos:station:SCCF:56:1,2014-03-10T01:00:00Z,26.4645,-82.1044,1.65,9.45,1111122 
SCCF RECON,ioos:station:SCCF:56:1,2014-03-10T02:00:00Z,26.4645,-82.1044,1.64,9.04,1111122 
SCCF RECON,ioos:station:SCCF:56:1,2014-03-10T03:00:00Z,26.4645,-82.1044,1.6,8.93,1111122 
SCCF RECON,ioos:station:SCCF:56:1,2014-03-10T04:00:00Z,26.4645,-82.1044,1.52,8.46,1111122 
SCCF RECON,ioos:station:SCCF:56:1,2014-03-10T05:00:00Z,26.4645,-82.1044,1.43,7.34,1111122 
SCCF RECON,ioos:station:SCCF:56:1,2014-03-10T06:00:00Z,26.4645,-82.1044,1.36,6.38,1111122 
SCCF RECON,ioos:station:SCCF:56:1,2014-03-10T07:00:00Z,26.4645,-82.1044,1.27,5.8,1111122 
SCCF RECON,ioos:station:SCCF:56:1,2014-03-10T08:00:00Z,26.4645,-82.1044,1.18,5.34,1111122 
SCCF RECON,ioos:station:SCCF:56:1,2014-03-10T09:00:00Z,26.4645,-82.1044,1.14,5.16,1111122 
SCCF RECON,ioos:station:SCCF:56:1,2014-03-10T10:00:00Z,26.4645,-82.1044,1.16,5.16,1111122 
SCCF RECON,ioos:station:SCCF:56:1,2014-03-10T11:00:00Z,26.4645,-82.1044,1.23,5.81,1111122 
SCCF RECON,ioos:station:SCCF:56:1,2014-03-10T12:00:00Z,26.4645,-82.1044,1.33,6.14,1111122 
SCCF RECON,ioos:station:SCCF:56:1,2014-03-10T13:00:00Z,26.4645,-82.1044,1.43,6.9,1111122 
SCCF RECON,ioos:station:SCCF:56:1,2014-03-10T14:00:00Z,26.4645,-82.1044,1.52,7.33,1111122 
SCCF RECON,ioos:station:SCCF:56:1,2014-03-10T15:00:00Z,26.4645,-82.1044,1.58,7.89,1111122 
SCCF RECON,ioos:station:SCCF:56:1,2014-03-10T16:00:00Z,26.4645,-82.1044,1.62,8.06,1111122 
SCCF RECON,ioos:station:SCCF:56:1,2014-03-10T17:00:00Z,26.4645,-82.1044,1.61,8.22,1111122 
SCCF RECON,ioos:station:SCCF:56:1,2014-03-10T18:00:00Z,26.4645,-82.1044,1.57,7.85,1111122 
SCCF RECON,ioos:station:SCCF:56:1,2014-03-10T19:00:00Z,26.4645,-82.1044,1.52,8.07,1111122 
SCCF RECON,ioos:station:SCCF:56:1,2014-03-10T20:00:00Z,26.4645,-82.1044,1.5,7.78,1111122 
SCCF RECON,ioos:station:SCCF:56:1,2014-03-10T21:00:00Z,26.4645,-82.1044,1.56,9.47,1111122 
SCCF RECON,ioos:station:SCCF:56:1,2014-03-10T22:00:00Z,26.4645,-82.1044,1.58,9.47,1111122 
SCCF RECON,ioos:station:SCCF:56:1,2014-03-10T23:00:00Z,26.4645,-82.1044,1.61,9.4,1111122 
SCCF RECON,ioos:station:SCCF:56:1,2014-03-11T00:00:00Z,26.4645,-82.1044,1.61,9.56,1111122 
SCCF RECON,ioos:station:SCCF:56:1,2014-03-11T01:00:00Z,26.4645,-82.1044,1.66,9.58,1111122 
SCCF RECON,ioos:station:SCCF:56:1,2014-03-11T02:00:00Z,26.4645,-82.1044,1.69,9.23,1111122 
SCCF RECON,ioos:station:SCCF:56:1,2014-03-11T03:00:00Z,26.4645,-82.1044,1.692,8.8,1111122 
SCCF RECON,ioos:station:SCCF:56:1,2014-03-11T04:00:00Z,26.4645,-82.1044,1.65,8.37,1111122 
SCCF RECON,ioos:station:SCCF:56:1,2014-03-11T05:00:00Z,26.4645,-82.1044,1.57,8.08,1111122 
SCCF RECON,ioos:station:SCCF:56:1,2014-03-11T06:00:00Z,26.4645,-82.1044,1.469,6.78,1111122 
SCCF RECON,ioos:station:SCCF:56:1,2014-03-11T07:00:00Z,26.4645,-82.1044,1.36,5.65,1111122 
SCCF RECON,ioos:station:SCCF:56:1,2014-03-11T08:00:00Z,26.4645,-82.1044,1.26,5.22,1111122 
SCCF RECON,ioos:station:SCCF:56:1,2014-03-11T09:00:00Z,26.4645,-82.1044,1.18,4.82,1111122 
SCCF RECON,ioos:station:SCCF:56:1,2014-03-11T10:00:00Z,26.4645,-82.1044,1.13,4.69,1111122 
SCCF RECON,ioos:station:SCCF:56:1,2014-03-11T11:00:00Z,26.4645,-82.1044,1.16,4.55,1111122 
SCCF RECON,ioos:station:SCCF:56:1,2014-03-11T12:00:00Z,26.4645,-82.1044,1.24,3.58,1111122 
SCCF RECON,ioos:station:SCCF:56:1,2014-03-11T13:00:00Z,26.4645,-82.1044,1.36,5.15,1111122 
SCCF RECON,ioos:station:SCCF:56:1,2014-03-11T14:00:00Z,26.4645,-82.1044,1.45,6.81,1111122 
SCCF RECON,ioos:station:SCCF:56:1,2014-03-11T15:00:00Z,26.4645,-82.1044,1.53,7.85,1111122 
SCCF RECON,ioos:station:SCCF:56:1,2014-03-11T16:00:00Z,26.4645,-82.1044,1.59,8.85,1111122 
SCCF RECON,ioos:station:SCCF:56:1,2014-03-11T17:00:00Z,26.4645,-82.1044,1.59,8.76,1111122 
SCCF RECON,ioos:station:SCCF:56:1,2014-03-11T18:00:00Z,26.4645,-82.1044,1.56,8.55,1111122 
SCCF RECON,ioos:station:SCCF:56:1,2014-03-11T19:00:00Z,26.4645,-82.1044,1.53,8.73,1111122 
SCCF RECON,ioos:station:SCCF:56:1,2014-03-11T20:00:00Z,26.4645,-82.1044,1.495,8.43,1111122 
SCCF RECON,ioos:station:SCCF:56:1,2014-03-11T21:00:00Z,26.4645,-82.1044,1.45,8.53,1111122 